Location: Unspecified
(52.4292°N, 19.3359°E)
Time: 23:03:16
(UTC+02:00)

SR - Pass Details

Date: 05 June 2024
Orbit: 580 x 858 km, 66.7° (Epoch: 12 June)

Event Time Altitude Azimuth Distance (km) Brightness Sun altitude
Rises 13:46:54 0° 162° (SSE) 3,175 ? 57.7°
Reaches altitude 10° 13:50:27 10° 138° (SE) 2,192 ? 57.4°
Maximum altitude 13:52:55 14° 108° (ESE) 1,899 ? 57.2°
Drops below altitude 10° 13:55:18 10° 78° (ENE) 2,109 ? 57.0°
Sets 13:58:35 0° 53° (NE) 2,968 ? 56.7°
